Flag for Switzerland Weather past 2 weeks in Langenthal, Bern, Switzerland

Now
44 °F

Quite cool.


Feels Like: 43 °F
Forecast: 29 / 55 °F
Wind: 3 mph from West

Location: Wynau

Current Time: Mar 27, 2015 at 10:48:15 PM

Latest Report: Mar 27, 2015 at 9:00 PM


Visibility: N/A

Pressure: 30.27 "Hg

Humidity: 59%

Dew point: 30 °F

Location of LangenthalLocation

Historic Weather in Langenthal — Graph

°F

Langenthal temperature yesterday

Maximum temperature yesterday: 45 °F (at 3:00 PM)
Minimum temperature yesterday: 39 °F (at 6:00 AM)
Average temperature yesterday: 42 °F

Past Weeks' High & Low Weather Summary

 TemperatureHumidityPressure
High64 °F (Mar 18, 4:00 PM)100% (Mar 24, 3:00 AM)30.31 "Hg (Mar 24, 3:00 AM)
Low26 °F (Mar 13, 7:00 AM)30% (Mar 24, 4:00 PM)29.61 "Hg (Mar 25, 1:00 PM)
Average43 °F76%30.07 "Hg
* Reported Mar 12 9:00 PM — Mar 27 9:00 PM, Langenthal, Weather by CustomWeather, © 2015

Note: Actual official high and low records may vary slightly from our data, if they occured in-between our weather recording intervals... More about our weather records

Advertising

Langenthal weather history for previous 24 hours

 ConditionsComfort  
Time TempWeatherWind HumidityBarometerVisibility
9:00 PM
Fri, Mar 27
44 °FQuite cool.3 mph59%30.27 "HgN/A
8:00 PM44 °FQuite cool.2 mph66%30.25 "HgN/A
7:00 PM44 °FQuite cool.2 mph68%30.24 "HgN/A
6:00 PM50 °FCool.5 mph45%30.19 "HgN/A
5:00 PM52 °FCool.7 mph43%30.16 "HgN/A
4:00 PM52 °FCool.5 mph44%30.15 "HgN/A
3:00 PM51 °FCool.7 mph52%30.13 "HgN/A
2:00 PM50 °FCool.8 mph57%30.15 "HgN/A
1:00 PM50 °FCool.7 mph55%30.14 "HgN/A
12:00 PM49 °FCool.5 mph61%30.14 "HgN/A
11:00 AM46 °FCool.8 mph67%30.15 "HgN/A
10:00 AM47 °FCool.6 mph70%30.14 "HgN/A
9:00 AM45 °FCool.3 mph84%30.12 "HgN/A
8:00 AM42 °FQuite cool.2 mph93%30.11 "HgN/A
6:00 AM41 °FQuite cool.2 mph90%30.06 "HgN/A
5:00 AM40 °FQuite cool.2 mph97%30.03 "HgN/A
3:00 AM41 °FQuite cool.3 mph92%30.02 "HgN/A
2:00 AM40 °FQuite cool.3 mph94%30.01 "HgN/A
1:00 AM40 °FQuite cool.5 mph94%30.00 "HgN/A
12:00 AM41 °FQuite cool.6 mph90%29.98 "HgN/A
11:00 PM
Thu, Mar 26
42 °FQuite cool.3 mph76%29.95 "HgN/A
Weather by CustomWeather, © 2015

See weather overviewHow to use our weather pages